Year,Month,Day,Hour,Minute,Value (Times are PST for barometer in hPa)
2022,07,24,02,44,930.75
2022,07,24,02,45,930.67
2022,07,24,02,46,929.09
2022,07,24,02,47,929.09
2022,07,24,02,48,929.09
2022,07,24,02,49,929.09
2022,07,24,02,50,929.09
2022,07,24,02,51,929.46
2022,07,24,02,52,929.46
2022,07,24,02,53,929.46
2022,07,24,02,54,929.46
2022,07,24,02,55,930.70
2022,07,24,02,56,954.28
2022,07,24,02,57,954.28
2022,07,24,02,58,954.28
2022,07,24,02,59,954.28
2022,07,24,03,00,954.28
2022,07,24,03,01,954.28
2022,07,24,03,02,954.28
2022,07,24,03,06,954.28
2022,07,24,03,07,954.28
2022,07,24,03,08,954.28
2022,07,24,03,09,954.28
2022,07,24,03,10,954.28
2022,07,24,03,11,954.28
2022,07,24,03,12,954.28
2022,07,24,03,13,954.28
2022,07,24,03,14,954.28
2022,07,24,03,15,954.28
2022,07,24,03,16,954.28
2022,07,24,03,17,954.28
2022,07,24,03,18,954.28
2022,07,24,03,19,954.28
2022,07,24,03,20,954.28
2022,07,24,03,21,954.28
2022,07,24,03,22,954.28
2022,07,24,03,23,952.80
2022,07,24,03,24,946.87
2022,07,24,03,25,946.87
2022,07,24,03,26,946.87
2022,07,24,03,27,946.87
2022,07,24,03,28,946.92
2022,07,24,03,29,947.14
2022,07,24,03,30,947.14
2022,07,24,03,31,946.00
2022,07,24,03,32,939.55
2022,07,24,03,33,939.55
2022,07,24,03,34,939.55
2022,07,24,03,35,939.55
2022,07,24,03,36,939.55
2022,07,24,03,37,939.55
2022,07,24,03,38,939.55
2022,07,24,03,39,939.55
2022,07,24,03,40,939.55
2022,07,24,03,41,939.55
2022,07,24,03,42,939.55
2022,07,24,03,43,939.55
2022,07,24,03,44,939.55
2022,07,24,03,45,939.55
2022,07,24,03,46,939.55
2022,07,24,03,47,939.55
2022,07,24,03,48,939.55
2022,07,24,03,49,939.55
2022,07,24,03,50,939.55
2022,07,24,03,51,939.55
2022,07,24,03,52,939.55
2022,07,24,03,53,939.55
2022,07,24,03,54,939.55
2022,07,24,03,55,939.55
2022,07,24,03,56,939.55
2022,07,24,03,57,939.55
2022,07,24,03,58,939.55
2022,07,24,03,59,939.55
2022,07,24,04,00,939.55
2022,07,24,04,01,939.55
2022,07,24,04,02,938.11
2022,07,24,04,03,932.34
2022,07,24,04,04,932.34
2022,07,24,04,05,932.34
2022,07,24,04,06,932.34
2022,07,24,04,07,932.34
2022,07,24,04,08,932.34
2022,07,24,04,09,932.34
2022,07,24,04,10,932.34
2022,07,24,04,11,932.34
2022,07,24,04,12,932.34
2022,07,24,04,13,932.34
2022,07,24,04,14,932.34
2022,07,24,04,15,929.66
2022,07,24,04,16,915.34
2022,07,24,04,17,915.34
2022,07,24,04,18,915.34
2022,07,24,04,19,915.34
2022,07,24,04,20,915.34
2022,07,24,04,21,915.34
2022,07,24,04,22,915.34
2022,07,24,04,23,914.37
2022,07,24,04,24,908.87
2022,07,24,04,25,908.87
2022,07,24,04,26,908.87
2022,07,24,04,27,908.87
2022,07,24,04,28,908.87
2022,07,24,04,29,908.87
2022,07,24,04,30,908.87
2022,07,24,04,31,908.87
2022,07,24,04,32,908.87
2022,07,24,04,33,908.87
2022,07,24,04,34,908.87
2022,07,24,04,35,908.87
2022,07,24,04,36,908.87
2022,07,24,04,37,908.87
2022,07,24,04,38,908.87
2022,07,24,04,39,908.87
2022,07,24,04,40,908.87
2022,07,24,04,41,908.87
2022,07,24,04,42,908.87
2022,07,24,04,43,908.87
2022,07,24,04,44,908.87
2022,07,24,04,45,915.70
2022,07,24,04,46,952.12
2022,07,24,04,47,952.12
2022,07,24,04,48,952.12
2022,07,24,04,49,952.12
2022,07,24,04,50,952.12
2022,07,24,04,51,952.12
2022,07,24,04,52,952.12
2022,07,24,04,53,952.12
2022,07,24,04,54,952.12
2022,07,24,04,55,952.12
2022,07,24,04,56,952.12
2022,07,24,04,57,952.12
2022,07,24,04,58,952.12
2022,07,24,04,59,952.12
2022,07,24,05,00,953.78
2022,07,24,05,01,962.62
2022,07,24,05,02,962.69
2022,07,24,05,03,962.99
2022,07,24,05,04,962.99
2022,07,24,05,05,962.99
2022,07,24,05,06,962.99
2022,07,24,05,07,962.99
2022,07,24,05,08,962.99
2022,07,24,05,09,962.99
2022,07,24,05,10,962.99
2022,07,24,05,11,962.99
2022,07,24,05,12,962.99
2022,07,24,05,13,962.99
2022,07,24,05,14,962.99
2022,07,24,05,15,962.99
2022,07,24,05,16,962.99
2022,07,24,05,17,962.17
2022,07,24,05,18,957.77
2022,07,24,05,19,957.77
2022,07,24,05,20,957.77
2022,07,24,05,21,957.77
2022,07,24,05,22,957.77
2022,07,24,05,23,957.77
2022,07,24,05,24,957.77
2022,07,24,05,25,957.77
2022,07,24,05,26,957.77
2022,07,24,05,27,957.77
2022,07,24,05,28,957.77
2022,07,24,05,29,957.77
2022,07,24,05,30,957.77
2022,07,24,05,31,957.77
2022,07,24,05,32,957.77
2022,07,24,05,33,957.77
2022,07,24,05,34,957.77
2022,07,24,05,35,957.77
2022,07,24,05,36,957.77
2022,07,24,05,37,957.77
2022,07,24,05,38,957.77
2022,07,24,05,39,957.77
2022,07,24,05,40,957.77
2022,07,24,05,41,957.77
2022,07,24,05,42,957.77
2022,07,24,05,43,957.77
2022,07,24,05,44,957.77
2022,07,24,05,45,957.77
2022,07,24,05,46,957.77
2022,07,24,05,47,957.77
2022,07,24,05,48,957.77
2022,07,24,05,49,957.77
2022,07,24,05,50,957.77
2022,07,24,05,51,957.77
2022,07,24,05,52,957.77
2022,07,24,05,53,957.77
2022,07,24,05,54,957.77
2022,07,24,05,55,957.77
2022,07,24,05,56,957.77
2022,07,24,05,57,957.77
2022,07,24,05,58,957.77
2022,07,24,05,59,957.77
2022,07,24,06,00,957.77
2022,07,24,06,01,957.77
2022,07,24,06,02,957.77
2022,07,24,06,03,957.77
2022,07,24,06,04,957.77
2022,07,24,06,05,957.77
2022,07,24,06,06,957.77
2022,07,24,06,07,957.77
2022,07,24,06,08,957.77
2022,07,24,06,09,957.77
2022,07,24,06,10,957.77
2022,07,24,06,11,957.77
2022,07,24,06,12,957.77
2022,07,24,06,13,957.77
2022,07,24,06,14,957.77
2022,07,24,06,15,957.77
2022,07,24,06,16,957.77
2022,07,24,06,17,957.77
2022,07,24,06,18,957.77
2022,07,24,06,19,957.77
2022,07,24,06,20,957.77
2022,07,24,06,21,957.77
2022,07,24,06,22,957.77
2022,07,24,06,23,960.04
2022,07,24,06,24,972.88
2022,07,24,06,25,972.88
2022,07,24,06,26,972.88
2022,07,24,06,27,972.88
2022,07,24,06,28,972.88
2022,07,24,06,29,972.88
2022,07,24,06,30,972.88
2022,07,24,06,31,972.88
2022,07,24,06,32,972.88
2022,07,24,06,33,972.88
2022,07,24,06,34,972.88
2022,07,24,06,35,972.88
2022,07,24,06,36,972.88
2022,07,24,06,37,972.88
2022,07,24,06,38,972.88
2022,07,24,06,39,972.88
2022,07,24,06,40,972.88
2022,07,24,06,41,972.88
2022,07,24,06,42,972.88
2022,07,24,06,43,972.88
2022,07,24,06,44,972.88
2022,07,24,06,45,972.88
2022,07,24,06,46,972.88
2022,07,24,06,47,972.88
2022,07,24,06,48,972.88
2022,07,24,06,49,972.88
2022,07,24,06,50,972.88
2022,07,24,06,51,972.88
2022,07,24,06,52,972.88
2022,07,24,06,53,972.88
2022,07,24,06,54,972.88
2022,07,24,06,55,972.88
2022,07,24,06,56,973.55
2022,07,24,06,57,977.38
2022,07,24,06,58,977.38
2022,07,24,06,59,977.38
2022,07,24,07,00,977.38
2022,07,24,07,01,977.38
2022,07,24,07,02,977.38
2022,07,24,07,03,977.76
2022,07,24,07,04,979.99
2022,07,24,07,05,980.36
2022,07,24,07,06,980.36
2022,07,24,07,07,980.36
2022,07,24,07,08,980.36
2022,07,24,07,09,980.36
2022,07,24,07,10,980.36
2022,07,24,07,11,980.36
2022,07,24,07,12,980.36
2022,07,24,07,13,980.36
2022,07,24,07,14,980.36
2022,07,24,07,15,980.36
2022,07,24,07,16,980.36
2022,07,24,07,17,980.36
2022,07,24,07,18,980.36
2022,07,24,07,19,980.36
2022,07,24,07,20,980.36
2022,07,24,07,21,980.36
2022,07,24,07,22,980.36
2022,07,24,07,23,980.36
2022,07,24,07,24,980.36
2022,07,24,07,25,980.36
2022,07,24,07,26,980.36
2022,07,24,07,27,980.36
2022,07,24,07,28,980.36
2022,07,24,07,29,980.36
2022,07,24,07,30,980.36
2022,07,24,07,31,980.36
2022,07,24,07,32,980.36
2022,07,24,07,33,980.36
2022,07,24,07,34,980.36
2022,07,24,07,35,980.36
2022,07,24,07,36,980.36
2022,07,24,07,37,980.36
2022,07,24,07,38,980.36
2022,07,24,07,39,980.36
2022,07,24,07,40,980.36
2022,07,24,07,41,980.36
2022,07,24,07,42,980.36
2022,07,24,07,43,980.36
2022,07,24,07,44,980.36
2022,07,24,07,45,980.36
2022,07,24,07,46,980.36
2022,07,24,07,47,980.36
2022,07,24,07,48,980.36
2022,07,24,07,49,980.36
2022,07,24,07,50,980.36
2022,07,24,07,51,980.36
2022,07,24,07,52,980.36
2022,07,24,07,53,980.36
2022,07,24,07,54,980.36
2022,07,24,07,55,980.36
2022,07,24,07,56,980.36
2022,07,24,07,57,980.36
2022,07,24,07,58,980.36
2022,07,24,07,59,980.36
2022,07,24,08,00,980.36
2022,07,24,08,01,969.92
2022,07,24,08,02,910.74
2022,07,24,08,03,910.74
2022,07,24,08,04,910.74
2022,07,24,08,05,910.74
2022,07,24,08,06,910.74
2022,07,24,08,07,910.74
2022,07,24,08,08,910.74
2022,07,24,08,09,910.74
2022,07,24,08,10,910.74
2022,07,24,08,11,910.74
2022,07,24,08,12,910.74
2022,07,24,08,13,910.74
2022,07,24,08,14,910.74
2022,07,24,08,15,910.74
2022,07,24,08,16,910.74
2022,07,24,08,17,910.74
2022,07,24,08,18,910.74
2022,07,24,08,19,910.74
2022,07,24,08,20,910.74
2022,07,24,08,21,910.74
2022,07,24,08,22,910.74
2022,07,24,08,23,910.74
2022,07,24,08,24,910.74
2022,07,24,08,25,910.74
2022,07,24,08,26,909.76
2022,07,24,08,27,904.23
2022,07,24,08,28,904.23
2022,07,24,08,29,904.23
2022,07,24,08,30,904.23
2022,07,24,08,31,904.23
2022,07,24,08,32,904.23
2022,07,24,08,33,904.23
2022,07,24,08,34,904.23
2022,07,24,08,35,904.23
2022,07,24,08,36,904.23
2022,07,24,08,37,904.23
2022,07,24,08,38,904.23
2022,07,24,08,39,904.23
2022,07,24,08,40,904.23
2022,07,24,08,41,904.23
2022,07,24,08,42,904.23
2022,07,24,08,43,904.23
2022,07,24,08,44,904.23
2022,07,24,08,45,904.23
2022,07,24,08,46,904.23
2022,07,24,08,47,904.23
2022,07,24,08,48,904.23
2022,07,24,08,49,904.23
2022,07,24,08,50,904.23
2022,07,24,08,51,904.23
2022,07,24,08,52,904.23
2022,07,24,08,53,904.23
2022,07,24,08,54,904.23
2022,07,24,08,55,904.23
2022,07,24,08,56,904.23
2022,07,24,08,57,904.23
2022,07,24,08,58,904.23
2022,07,24,08,59,904.23
2022,07,24,09,00,904.23
2022,07,24,09,01,904.23
2022,07,24,09,02,904.23
2022,07,24,09,03,904.23
2022,07,24,09,04,904.23
2022,07,24,09,05,904.23
2022,07,24,09,06,904.23
2022,07,24,09,07,904.23
2022,07,24,09,08,904.23
2022,07,24,09,09,904.23
2022,07,24,09,10,904.23
2022,07,24,09,11,904.23
2022,07,24,09,12,904.23
2022,07,24,09,13,904.23
2022,07,24,09,14,904.23
2022,07,24,09,15,904.23
2022,07,24,09,16,904.23
2022,07,24,09,17,904.23
2022,07,24,09,18,904.23
2022,07,24,09,19,904.23
2022,07,24,09,20,904.23
2022,07,24,09,21,904.23
2022,07,24,09,22,904.23
2022,07,24,09,23,904.23
2022,07,24,09,24,904.23
2022,07,24,09,25,904.23
2022,07,24,09,26,904.23
2022,07,24,09,27,904.23
2022,07,24,09,28,904.23
2022,07,24,09,29,904.23
2022,07,24,09,30,904.23
2022,07,24,09,31,904.23
2022,07,24,09,32,904.23
2022,07,24,09,33,904.23
2022,07,24,09,34,904.23
2022,07,24,09,35,904.23
2022,07,24,09,36,904.23
2022,07,24,09,37,904.23
2022,07,24,09,38,904.23
2022,07,24,09,39,904.23
2022,07,24,09,40,904.23
2022,07,24,09,41,904.23
2022,07,24,09,42,904.23
2022,07,24,09,43,904.23
2022,07,24,09,44,904.23
2022,07,24,09,45,904.23
2022,07,24,09,46,904.23
2022,07,24,09,47,904.23
2022,07,24,09,48,904.23
2022,07,24,09,49,904.23
2022,07,24,09,50,904.23
2022,07,24,09,51,904.23
2022,07,24,09,52,904.23
2022,07,24,09,53,904.23
2022,07,24,09,54,904.23
2022,07,24,09,55,904.23
2022,07,24,09,56,904.23
2022,07,24,09,57,904.23
2022,07,24,09,58,904.23
2022,07,24,09,59,904.23
2022,07,24,10,00,904.23
2022,07,24,10,01,904.23
2022,07,24,10,02,904.23
2022,07,24,10,03,904.23
2022,07,24,10,04,904.23
2022,07,24,10,05,904.23
2022,07,24,10,06,904.23
2022,07,24,10,07,904.94
2022,07,24,10,08,910.97
2022,07,24,10,09,910.97
2022,07,24,10,10,910.97
2022,07,24,10,11,910.97
2022,07,24,10,12,910.97
2022,07,24,10,13,910.97
2022,07,24,10,14,910.97
2022,07,24,10,15,910.97
2022,07,24,10,16,910.36
2022,07,24,10,17,905.22
2022,07,24,10,18,907.12
2022,07,24,10,19,923.27
2022,07,24,10,20,923.27
2022,07,24,10,21,923.27
2022,07,24,10,22,923.27
2022,07,24,10,23,923.27
2022,07,24,10,24,923.27
2022,07,24,10,25,923.27
2022,07,24,10,26,923.27
2022,07,24,10,27,923.27
2022,07,24,10,28,923.27
2022,07,24,10,29,923.27
2022,07,24,10,30,923.27
